PROFILE

 METAR AND TAF INFORMATION
ADDS - METARS form results

(2258 UTC 10 December 2018)
http://aviationweather.gov/metar/data/
 
KSAN 102251Z 32004KT 10SM FEW200 OVC250 18/10 A3002 RMK AO2 SLP166 T01830100
KSAN 102048Z 1021/1124 31008KT P6SM BKN250 FM110100 VRB04KT P6SM SCT018 BKN200 FM110700 VRB04KT P6SM BKN015 FM111600 VRB03KT P6SM SCT020 SCT200 FM112100 26008KT P6SM SCT200 

 AIRPORT MAP

 RUNWAY INFORMATION
Runway 09 Runway length 9401 ft Runway width 200 ft
Runway elevation 14 ft Runway displaced threshold 700 ft Runway heading 106
Runway 27 Runway length 9401 ft Runway width 200 ft
Runway elevation 13 ft Runway displaced threshold 1810 ft Runway heading 286

 AIRPORT FREQUENCIES
Type A/D Name SOCAL APP/ Frequency 119.6 MHZ
Type ATIS Name ATIS Frequency 134.8 MHZ
Type CLD Name CLNC DEL Frequency 125.9 MHZ
Type GND Name GND Frequency 123.9 MHZ
Type MISC Name CG Frequency 157.15 MHZ
Type MISC Name CG Frequency 898.4 MHZ
Type TWR Name LINDBERGH Frequency 118.3 MHZ
Type UNIC Name UNICOM Frequency 122.95 MHZ

 AIRPORT NEAR NAVIGATION AIDS
Type NDB Name Boing Frequency 245 KHZ